Weili Kongjian 01-01

operational
NORAD ID: 62576 Int'l Des: 2025-007 Owner: CENTI Country: CN Constellation: future-navigation
LEOCIRCULAR

Über Weili Kongjian 01-01

Beschreibung wird geladen...

Live-Position

3D-Globus wird geladen...

Nächste Überflüge

Höhenverlauf

Altitude vs Time

uPlot chart will show altitude changes over time

Zweizeiliger Elementsatz

1 62576U 25007B 26095.25293805 .00000016 00000-0 14884-3 0 9991
2 62576 54.9759 187.0738 0010248 281.9420 78.0387 13.80575397 64643
Epoch: 5. Apr. 2026 • Age: 9 hours

Aktueller Status

Höhe 967.8 km
Geschwindigkeit 7.37 km/s
Subsatellitenpunkt 23.42°N, 78.15°W
Startdatum 13. Jan. 2025
Alter 1.2 years
Typ other

Technische Details

Klassifizierung Payload
Masse 140.00 kg
Trockenmasse 140.00 kg
Gesamtmasse 140.00 kg
Länge 1.00 m
Durchmesser 0.50 m
Spannweite 2.00 m
Form Box + 2 pan
Hersteller DFHS
Bus-Typ WK01
Phasenstatus In Orbit
Besitzer/Staat CENTI/CN

Große Konstellationen

Loading constellations...